TimeEDT,TemperatureF,Dew PointF,Humidity,Sea Level PressureIn,VisibilityMPH,Wind Direction,Wind SpeedMPH,Gust SpeedMPH,PrecipitationIn,Events,Conditions,WindDirDegrees,DateUTC
12:15 AM,53.8,52.2,94,30.10,7.0,Calm,Calm,-,N/A,,Clear,0,2012-10-06 04:15:00
12:35 AM,54.1,52.5,94,30.09,7.0,Calm,Calm,-,N/A,,Clear,0,2012-10-06 04:35:00
12:55 AM,53.2,51.1,92,30.09,10.0,Calm,Calm,-,N/A,,Clear,0,2012-10-06 04:55:00
1:15 AM,53.1,51.6,95,30.08,5.0,Calm,Calm,-,N/A,,Clear,0,2012-10-06 05:15:00
1:35 AM,52.7,50.9,94,30.08,7.0,Calm,Calm,-,N/A,,Clear,0,2012-10-06 05:35:00
1:55 AM,52.9,50.9,93,30.07,10.0,Calm,Calm,-,N/A,,Scattered Clouds,0,2012-10-06 05:55:00
2:15 AM,52.0,50.5,95,30.07,7.0,Calm,Calm,-,N/A,,Scattered Clouds,0,2012-10-06 06:15:00
2:55 AM,52.5,50.2,92,30.05,10.0,Calm,Calm,-,N/A,,Mostly Cloudy,0,2012-10-06 06:55:00
3:15 AM,52.0,49.8,92,30.04,10.0,Calm,Calm,-,N/A,,Mostly Cloudy,0,2012-10-06 07:15:00
3:35 AM,52.0,50.4,94,30.04,10.0,Calm,Calm,-,N/A,,Scattered Clouds,0,2012-10-06 07:35:00
3:55 AM,52.0,50.4,94,30.03,7.0,Calm,Calm,-,N/A,,Clear,0,2012-10-06 07:55:00
4:15 AM,51.1,49.6,95,30.04,7.0,Calm,Calm,-,N/A,,Clear,0,2012-10-06 08:15:00
4:35 AM,51.8,49.6,92,30.03,10.0,Calm,Calm,-,N/A,,Clear,0,2012-10-06 08:35:00
4:55 AM,51.8,50.2,94,30.03,7.0,Calm,Calm,-,N/A,,Clear,0,2012-10-06 08:55:00
5:35 AM,52.9,51.3,94,30.03,7.0,Calm,Calm,-,N/A,,Clear,0,2012-10-06 09:35:00
5:55 AM,53.2,51.6,94,30.03,10.0,Calm,Calm,-,N/A,,Clear,0,2012-10-06 09:55:00
6:15 AM,53.1,51.3,94,30.03,7.0,Calm,Calm,-,N/A,,Clear,0,2012-10-06 10:15:00
6:35 AM,54.9,53.2,94,30.03,7.0,WSW,4.6,-,N/A,,Clear,240,2012-10-06 10:35:00
6:55 AM,56.5,54.5,93,30.03,10.0,WSW,8.1,-,N/A,,Clear,240,2012-10-06 10:55:00
7:15 AM,57.2,54.5,91,30.04,7.0,WSW,8.1,-,N/A,,Scattered Clouds,250,2012-10-06 11:15:00
7:35 AM,56.3,54.3,93,30.03,7.0,WSW,8.1,-,N/A,,Clear,240,2012-10-06 11:35:00
7:55 AM,56.8,54.7,92,30.03,5.0,WSW,6.9,-,N/A,,Scattered Clouds,250,2012-10-06 11:55:00
8:15 AM,57.4,55.0,92,30.04,7.0,WSW,10.4,-,N/A,,Scattered Clouds,240,2012-10-06 12:15:00
8:35 AM,60.1,56.7,88,30.03,10.0,WSW,13.8,19.6,N/A,,Mostly Cloudy,250,2012-10-06 12:35:00
8:55 AM,61.0,56.8,86,30.03,10.0,WSW,11.5,17.3,N/A,,Overcast,250,2012-10-06 12:55:00
9:15 AM,63.9,57.7,80,30.02,10.0,West,17.3,24.2,N/A,,Mostly Cloudy,260,2012-10-06 13:15:00
9:35 AM,64.6,57.6,78,30.02,10.0,West,20.7,-,N/A,,Scattered Clouds,270,2012-10-06 13:35:00
9:55 AM,63.5,56.8,79,30.02,10.0,West,20.7,28.8,N/A,,Scattered Clouds,260,2012-10-06 13:55:00
10:15 AM,64.4,57.9,79,30.02,10.0,West,17.3,25.3,N/A,,Overcast,260,2012-10-06 14:15:00
10:35 AM,65.3,58.3,78,30.03,10.0,West,16.1,26.5,N/A,,Overcast,260,2012-10-06 14:35:00
10:55 AM,63.7,57.7,81,30.03,10.0,West,13.8,24.2,N/A,,Overcast,260,2012-10-06 14:55:00
11:15 AM,63.9,58.1,81,30.04,10.0,West,19.6,-,N/A,,Overcast,260,2012-10-06 15:15:00
11:35 AM,63.0,58.1,84,30.04,10.0,West,16.1,25.3,N/A,,Overcast,270,2012-10-06 15:35:00
11:55 AM,63.0,58.1,84,30.05,7.0,West,16.1,-,N/A,,Overcast,270,2012-10-06 15:55:00
12:15 PM,60.8,56.8,87,30.06,7.0,WNW,17.3,24.2,N/A,,Overcast,290,2012-10-06 16:15:00
12:35 PM,59.9,55.4,85,30.06,10.0,WNW,17.3,23.0,N/A,,Overcast,290,2012-10-06 16:35:00
12:55 PM,59.2,54.7,85,30.06,10.0,WNW,15.0,20.7,N/A,,Overcast,290,2012-10-06 16:55:00
1:15 PM,59.0,54.0,83,30.06,10.0,WNW,12.7,18.4,N/A,,Overcast,290,2012-10-06 17:15:00
1:35 PM,58.6,53.4,83,30.06,10.0,WNW,15.0,21.9,N/A,,Overcast,300,2012-10-06 17:35:00
1:55 PM,57.2,52.2,83,30.05,10.0,NW,15.0,21.9,N/A,,Overcast,310,2012-10-06 17:55:00
2:15 PM,57.2,51.6,82,30.06,10.0,NW,11.5,19.6,N/A,,Overcast,310,2012-10-06 18:15:00
2:35 PM,57.2,50.9,79,30.06,10.0,West,9.2,24.2,N/A,,Overcast,280,2012-10-06 18:35:00
2:55 PM,57.7,50.2,76,30.06,10.0,WNW,10.4,21.9,N/A,,Overcast,290,2012-10-06 18:55:00
3:15 PM,57.7,50.9,78,30.06,10.0,WSW,5.8,-,N/A,,Overcast,240,2012-10-06 19:15:00
3:35 PM,57.9,51.6,80,30.06,10.0,West,5.8,-,N/A,,Overcast,270,2012-10-06 19:35:00
3:55 PM,58.8,51.3,76,30.06,10.0,West,8.1,-,N/A,,Overcast,270,2012-10-06 19:55:00
4:15 PM,58.3,50.5,75,30.06,10.0,WNW,8.1,-,N/A,,Overcast,300,2012-10-06 20:15:00
4:35 PM,58.1,50.0,74,30.06,10.0,NW,6.9,-,N/A,,Overcast,310,2012-10-06 20:35:00
4:55 PM,58.1,50.0,74,30.06,10.0,West,4.6,-,N/A,,Overcast,280,2012-10-06 20:55:00
5:15 PM,58.5,49.8,73,30.05,10.0,WNW,3.5,-,N/A,,Overcast,300,2012-10-06 21:15:00
5:35 PM,58.8,49.3,71,30.05,10.0,NW,5.8,-,N/A,,Overcast,310,2012-10-06 21:35:00
5:55 PM,57.2,49.5,75,30.06,10.0,WNW,5.8,-,N/A,,Overcast,290,2012-10-06 21:55:00
6:15 PM,56.7,49.5,77,30.06,10.0,WNW,6.9,-,N/A,,Overcast,290,2012-10-06 22:15:00
6:35 PM,56.3,49.5,78,30.07,10.0,NW,5.8,-,N/A,,Overcast,310,2012-10-06 22:35:00
6:55 PM,55.6,48.4,77,30.09,10.0,NW,6.9,-,N/A,,Overcast,310,2012-10-06 22:55:00
7:15 PM,55.0,47.5,76,30.09,10.0,NW,6.9,-,N/A,,Overcast,320,2012-10-06 23:15:00
7:35 PM,54.7,47.5,77,30.09,10.0,WNW,4.6,-,N/A,,Overcast,300,2012-10-06 23:35:00
7:55 PM,54.5,47.1,76,30.09,10.0,NNW,3.5,-,N/A,,Overcast,330,2012-10-06 23:55:00
8:15 PM,54.0,46.8,77,30.10,10.0,WNW,6.9,-,N/A,,Overcast,290,2012-10-07 00:15:00
8:35 PM,53.8,46.9,78,30.10,10.0,West,5.8,-,N/A,,Overcast,270,2012-10-07 00:35:00
8:55 PM,53.6,46.6,77,30.11,10.0,WNW,8.1,-,N/A,,Overcast,300,2012-10-07 00:55:00
9:15 PM,53.6,46.4,77,30.11,10.0,WNW,6.9,-,N/A,,Overcast,290,2012-10-07 01:15:00
9:35 PM,53.2,46.6,78,30.11,10.0,WNW,8.1,-,N/A,,Overcast,300,2012-10-07 01:35:00
9:55 PM,52.7,46.2,79,30.10,10.0,WNW,6.9,-,N/A,,Overcast,290,2012-10-07 01:55:00
10:15 PM,52.7,46.0,78,30.10,10.0,WNW,3.5,-,N/A,Thunderstorm,Overcast,290,2012-10-07 02:15:00
10:35 PM,52.2,45.5,78,30.10,10.0,WNW,3.5,-,N/A,,Overcast,290,2012-10-07 02:35:00
10:55 PM,51.3,45.1,80,30.11,10.0,NW,4.6,-,N/A,,Mostly Cloudy,320,2012-10-07 02:55:00
11:15 PM,50.9,45.1,81,30.10,10.0,NW,3.5,-,N/A,,Mostly Cloudy,320,2012-10-07 03:15:00
11:35 PM,49.8,45.3,84,30.10,10.0,Calm,Calm,-,N/A,,Overcast,0,2012-10-07 03:35:00
11:55 PM,49.8,45.1,84,30.09,10.0,Calm,Calm,-,N/A,,Scattered Clouds,0,2012-10-07 03:55:00